Tracking 33197 objects as of 18-Feb-2026
HD Live streaming from Space Station
objects crossing your sky now

QUBE

Track QUBE now!
10-day predictions
QUBE is classified as:


NORAD ID: 60476
Int'l Code: 2024-149J
Perigee: 448.5 km
Apogee: 450.0 km
Inclination: 97.4 °
Period: 93.4 minutes
Semi major axis: 6820 km
RCS: Unknown
Launch date: August 16, 2024
Source: Germany (GER)
Launch site: AIR FORCE WESTERN TEST RANGE (AFWTR)

Uplink (MHz):
Downlink (MHz): 435.600
Beacon (MHz):
Mode: 9600bps GFSK
Call sign: DP2QU
Status: Active

Your satellite tracking list
Your tracking list is empty




NASA's NSSDC Master Catalog

Two Line Element Set (TLE):
1 60476U 24149J   26049.27838295  .00019774  00000-0  47566-3 0  9997
2 60476  97.3849 133.9099 0001097 307.2956  52.8191 15.41338316 84113
Source of the keplerian elements: AFSPC